EW1732 Weather Reports


Display with metric or nautical units.
time (UTC)temp
F
wind
direction
speed
MPH
gust
MPH
rain 1hr
in
rain 24hr
in
rain mn
in
humidity
%
barometer
mb
20260506101701 59 142 0.0 3.0 0.00 0.00 0.00 88 1009.1
20260506100724 59 143 0.0 2.0 0.00 0.00 0.00 88 1009.3
20260506095702 59 115 0.0 1.0 0.00 0.00 0.00 88 1009.2
20260506094630 59 221 0.0 2.0 0.00 0.00 0.00 87 1009.1
20260506093612 59 197 0.0 1.0 0.00 0.00 0.00 88 1009.1
20260506092552 58 149 0.0 0.0 0.00 0.00 0.00 87 1009.2
20260506091533 59 245 0.0 0.0 0.00 0.00 0.00 87 1009.2
20260506085403 59 191 0.0 1.0 0.00 0.00 0.00 86 1009.4
20260506084330 59 307 0.0 0.0 0.00 0.00 0.00 86 1009.4
20260506083301 59 273 0.0 1.0 0.00 0.00 0.00 86 1009.6
20260506082323 58 142 0.0 0.0 0.00 0.00 0.00 85 1009.5
20260506081332 59 145 0.0 0.0 0.00 0.00 0.00 85 1009.6
20260506080319 59 189 0.0 0.0 0.00 0.00 0.00 84 1009.6
20260506072124 59 141 0.0 0.0 0.00 0.00 0.00 82 1009.7
20260506061834 60 131 0.0 0.0 0.00 0.00 0.00 79 1009.6
20260506050322 63 135 0.0 1.0 0.00 0.00 0.00 73 1010.0
20260506043227 63 150 0.0 1.0 0.00 0.00 0.00 72 1010.1
20260506042200 64 136 0.0 2.0 0.00 0.00 0.00 71 1010.0
20260506041141 64 185 0.0 4.0 0.00 0.00 0.00 70 1010.1
20260506040203 64 190 0.0 1.0 0.00 0.00 0.00 70 1010.0
20260506035138 65 107 0.0 3.0 0.00 0.00 0.00 69 1010.0
20260506034203 65 223 0.0 3.0 0.00 0.00 0.00 69 1010.0
20260506032037 65 128 0.0 2.0 0.00 0.00 0.00 68 1010.0
20260506031052 65 139 0.0 4.0 0.00 0.00 0.00 68 1009.8
20260506024845 65 146 0.0 3.0 0.00 0.00 0.00 68 1009.8
20260506022713 66 121 0.0 3.0 0.00 0.00 0.00 67 1009.8
20260506015446 66 145 0.0 6.0 0.00 0.00 0.00 65 1009.8
20260506014438 67 151 1.0 6.0 0.00 0.00 0.00 65 1009.7
20260506013419 67 257 0.0 3.0 0.00 0.00 0.00 64 1009.6
20260506012402 67 150 0.0 3.0 0.00 0.00 0.00 64 1009.4
20260506011422 68 144 0.0 3.0 0.00 0.00 0.00 63 1009.3
20260506010435 68 123 0.0 0.0 0.00 0.00 0.00 62 1009.2
20260506005420 68 140 0.0 0.0 0.00 0.00 0.00 61 1008.9
20260506004409 68 141 0.0 1.0 0.00 0.00 0.00 61 1009.0
20260506000028 69 155 0.0 1.0 0.00 0.00 0.00 61 1008.4
20260505235046 69 155 0.0 1.0 0.00 0.00 0.00 61 1008.3
20260505234041 70 136 0.0 1.0 0.00 0.00 0.00 60 1008.1
20260505231931 71 134 0.0 4.0 0.00 0.00 0.00 58 1007.9
20260505230940 71 173 0.0 4.0 0.00 0.00 0.00 57 1007.6
20260505225932 72 148 0.0 3.0 0.00 0.00 0.00 56 1007.6
20260505224930 72 150 1.0 3.0 0.00 0.00 0.00 55 1007.5
20260505223916 73 150 1.0 5.0 0.00 0.00 0.00 55 1007.4
20260505222934 74 149 1.0 5.0 0.00 0.00 0.00 53 1007.4
20260505221909 75 108 1.0 4.0 0.00 0.00 0.00 53 1007.2
20260505220838 75 143 0.0 4.0 0.00 0.00 0.00 52 1007.6
20260505215853 75 277 0.0 5.0 0.00 0.00 0.00 52 1007.5
20260505214906 76 139 1.0 5.0 0.00 0.00 0.00 52 1007.4
20260505213905 77 131 1.0 3.0 0.00 0.00 0.00 51 1007.3
20260505212857 77 265 1.0 5.0 0.00 0.00 0.00 51 1007.2
20260505210735 79 8 1.0 5.0 0.00 0.00 0.00 49 1006.9
20260505205726 79 137 1.0 6.0 0.00 0.00 0.00 49 1006.9
20260505204715 79 142 1.0 6.0 0.00 0.00 0.00 48 1006.9
20260505202554 79 119 1.0 7.0 0.00 0.00 0.00 49 1007.2
20260505201613 79 262 2.0 7.0 0.00 0.00 0.00 50 1007.3
20260505200548 80 134 1.0 6.0 0.00 0.00 0.00 48 1007.4
20260505195515 80 124 1.0 5.0 0.00 0.00 0.00 48 1007.4
20260505194508 80 243 2.0 5.0 0.00 0.00 0.00 47 1007.6
20260505193501 81 136 1.0 4.0 0.00 0.00 0.00 46 1007.6
20260505192426 81 160 1.0 8.0 0.00 0.00 0.00 49 1007.6
20260505191433 81 146 1.0 8.0 0.00 0.00 0.00 45 1007.5
20260505190424 81 148 1.0 4.0 0.00 0.00 0.00 44 1007.7
20260505185426 81 110 1.0 6.0 0.00 0.00 0.00 45 1007.9
20260505184411 81 134 2.0 6.0 0.00 0.00 0.00 45 1008.0
20260505183430 80 127 2.0 7.0 0.00 0.00 0.00 46 1008.2
20260505181256 81 158 2.0 7.0 0.00 0.00 0.00 47 1008.4
20260505180243 81 266 2.0 7.0 0.00 0.00 0.00 46 1008.4
20260505175302 81 108 2.0 7.0 0.00 0.00 0.00 46 1008.3
20260505174243 82 117 1.0 6.0 0.00 0.00 0.00 46 1008.4
20260505172048 81 124 2.0 7.0 0.00 0.00 0.00 43 1008.4
20260505171108 81 113 2.0 5.0 0.00 0.00 0.00 44 1008.6
20260505170131 81 219 1.0 5.0 0.00 0.00 0.00 43 1008.6
20260505165115 81 139 1.0 5.0 0.00 0.00 0.00 45 1009.0
20260505164058 80 139 1.0 8.0 0.00 0.00 0.00 47 1009.1
20260505163111 80 127 1.0 8.0 0.00 0.00 0.00 46 1009.2
20260505162054 80 240 1.0 4.0 0.00 0.00 0.00 47 1009.5
20260505152810 77 118 1.0 4.0 0.00 0.00 0.00 52 1010.0
20260505150653 74 146 2.0 4.0 0.00 0.00 0.00 54 1010.3
20260505140617 68 96 0.0 4.0 0.00 0.00 0.00 66 1010.7
20260505124328 57 82 0.0 0.0 0.00 0.00 0.00 87 1010.0
20260505123310 56 87 0.0 1.0 0.00 0.00 0.00 86 1010.1
20260505122322 57 79 0.0 0.0 0.00 0.00 0.00 83 1010.5
20260505121315 57 353 0.0 0.0 0.00 0.00 0.00 81 1011.0
20260505115147 57 255 0.0 0.0 0.00 0.00 0.00 79 1011.1
20260505114201 57 136 0.0 0.0 0.00 0.00 0.00 80 1011.1
20260505113209 56 127 0.0 0.0 0.00 0.00 0.00 82 1011.1
20260505112218 56 115 0.0 0.0 0.00 0.00 0.00 82 1011.0
20260505111237 56 129 0.0 0.0 0.00 0.00 0.00 82 1011.0
20260505110253 54 134 0.0 0.0 0.00 0.00 0.00 86 1010.9